Wind_Speed
55 56 56 56 56 57 57 57 57 57 56 55 56 57 57 57 57 57 57 58 58 58 58 58 58 58 58 58 59 60 60 60 59 58 59 58 57 56
56 56 56 56 56 56 56 57 57 58 57 56 56 56 56 57 56 57 57 57 57 58 58 58 58 58 58 58 58 58 59 59 59 59 60 58 57 56
55 55 55 55 55 55 56 56 57 57 58 56 56 55 55 56 56 56 57 57 57 58 58 58 58 58 58 58 57 57 57 58 59 59 60 59 58 58
53 54 54 54 54 55 55 56 56 56 57 56 55 54 54 55 55 55 56 57 57 58 57 57 58 57 57 57 57 57 57 57 58 57 57 58 58 58
53 53 53 53 54 55 55 55 55 55 55 55 53 53 54 54 54 55 55 56 57 57 57 56 56 56 56 55 55 56 56 56 56 56 57 57 57 56
53 53 53 53 53 53 53 53 53 54 54 53 52 52 53 53 54 54 54 55 55 55 56 56 55 55 55 55 54 53 54 54 54 55 55 56 56 56
52 52 52 52 51 52 52 52 52 52 51 52 52 51 51 51 51 52 52 53 53 53 54 54 54 54 54 53 53 52 52 53 52 52 52 53 54 54
51 51 51 51 51 51 51 51 51 51 51 51 51 51 50 51 51 51 50 51 51 51 51 51 52 51 50 49 49 49 48 48 48 48 49 50 51 51
50 50 50 51 50 50 50 50 51 51 51 51 50 50 50 50 50 49 49 49 48 48 49 48 47 46 45 45 45 45 44 43 44 45 45 45 46 48
49 50 50 50 50 50 50 50 50 51 51 51 51 50 50 49 49 49 48 47 46 46 46 45 44 43 42 41 41 41 40 40 40 41 41 42 42 43
50 50 50 50 49 50 49 49 48 48 48 48 49 48 48 49 48 47 46 45 43 42 42 42 40 39 39 38 38 38 37 37 37 36 37 37 38 39
49 49 49 48 48 48 47 47 46 45 45 44 45 45 45 45 44 43 42 42 40 38 38 37 36 35 34 34 35 35 35 34 33 33 33 33 34 35
47 47 46 46 46 46 46 45 44 43 43 43 43 42 42 41 40 40 39 38 36 34 34 34 33 32 31 31 32 33 32 32 31 31 31 31 32 32
45 45 45 45 44 44 44 43 43 43 42 42 41 40 38 37 37 36 35 35 34 33 31 31 30 29 29 28 29 29 29 30 29 29 29 29 30 31
44 44 43 43 42 42 42 41 41 41 40 39 37 36 35 34 33 33 33 33 32 31 29 28 27 26 26 25 25 26 27 27 27 27 27 28 28 29
43 42 42 42 41 40 40 39 39 38 37 35 33 32 32 32 32 31 30 29 29 28 27 26 25 24 24 24 24 25 25 25 25 25 25 25 26 28
41 41 41 40 39 39 38 38 37 36 34 32 30 30 29 29 29 29 27 27 26 25 24 24 23 22 23 24 24 24 24 24 24 24 24 23 24 25
40 40 38 38 38 37 37 36 35 34 32 31 29 28 28 28 27 27 26 26 24 23 22 22 22 23 23 23 23 23 22 23 23 23 23 22 22 23
38 37 37 36 35 35 34 33 32 31 29 28 28 27 27 26 25 25 25 23 22 21 21 22 22 22 22 22 22 22 21 22 22 22 21 20 20 20
37 36 35 34 33 33 32 31 29 28 27 26 26 25 24 23 23 23 23 21 20 20 19 19 20 20 21 21 21 20 20 20 19 19 19 19 19 20
35 34 32 31 31 30 30 28 27 25 25 24 23 23 23 22 22 21 21 20 18 18 17 17 18 19 19 19 19 18 18 18 18 17 17 17 17 18
33 31 30 30 29 28 27 26 25 23 22 21 21 20 20 20 20 19 18 17 16 16 15 15 16 16 16 17 17 18 18 17 17 17 17 17 17 17
30 29 28 28 27 26 25 24 22 21 21 20 20 19 18 18 18 17 16 16 15 14 13 13 13 13 13 13 14 16 16 16 16 15 15 15 15 16
Wind_Direction
287 287 287 287 287 287 286 285 285 284 283 283 281 280 278 277 276 275 275 275 275 274 273 272 271 271 271 270 269 267 265 264 262 261 261 260 260 259
287 287 287 288 287 287 286 285 285 286 285 283 282 281 279 277 278 277 276 276 275 274 274 273 273 272 271 270 270 268 266 264 262 261 260 260 258 257
287 287 288 288 288 288 287 286 286 286 286 285 283 282 280 278 279 278 277 276 276 276 275 275 274 273 271 270 269 268 267 265 263 261 260 258 257 255
287 288 288 288 288 288 287 287 286 287 287 287 284 281 280 279 279 280 279 278 277 276 276 276 275 273 272 270 269 268 266 265 263 261 260 258 256 255
288 288 289 288 289 289 288 287 287 287 288 288 285 282 280 280 280 280 280 279 278 277 277 276 276 274 272 271 270 268 266 265 264 262 259 258 257 256
289 289 289 290 290 289 289 288 288 288 288 287 285 283 282 281 280 280 281 279 278 277 277 277 276 275 273 271 270 269 267 265 264 262 260 258 256 255
289 290 291 291 290 290 289 289 289 288 288 287 285 284 283 282 281 282 283 281 279 277 277 277 276 275 273 272 270 269 267 266 264 262 260 259 257 255
289 290 291 290 290 290 291 290 290 289 288 288 286 285 284 283 282 283 283 282 280 278 278 277 276 274 272 272 270 267 266 265 263 262 261 259 257 255
290 290 291 291 291 290 290 290 290 289 289 288 287 286 286 285 285 285 284 283 282 280 278 278 276 275 273 271 269 266 264 263 262 262 260 258 257 255
291 291 292 292 292 291 291 290 290 289 288 287 286 287 287 288 288 287 285 284 283 281 278 276 276 275 272 270 267 265 264 262 262 262 260 258 257 256
292 292 293 293 293 292 292 291 291 290 289 288 288 289 290 289 289 288 285 284 283 281 278 276 275 272 270 268 267 265 264 262 261 260 259 257 256 254
292 292 293 293 293 293 293 292 292 291 290 289 290 291 290 290 289 288 286 285 282 281 279 275 273 272 269 266 264 264 264 262 261 260 258 258 256 253
293 293 293 293 294 294 293 294 293 293 291 290 290 290 290 289 288 288 287 285 283 281 279 276 272 269 268 264 261 261 261 261 260 260 259 256 254 252
294 294 294 294 294 294 294 294 294 293 292 291 291 290 289 288 287 287 286 285 284 282 279 275 270 267 264 260 258 257 258 258 258 258 256 255 253 251
296 296 295 295 295 295 295 295 296 295 294 293 291 289 288 287 286 286 286 285 283 281 277 273 267 263 260 257 256 253 253 256 258 257 257 255 252 252
297 297 297 296 296 296 296 296 296 296 296 294 291 290 288 287 286 286 286 285 283 279 274 269 265 262 258 257 257 255 255 256 256 257 257 255 251 251
298 298 297 296 296 296 296 295 296 295 295 294 292 290 288 287 286 285 285 286 284 279 271 266 263 263 261 259 256 255 255 256 257 256 254 253 251 250
299 299 298 297 296 296 296 296 296 294 294 292 290 290 289 287 285 284 286 286 284 279 272 268 265 263 260 259 258 257 255 254 253 250 251 251 251 249
300 300 299 299 298 297 297 297 296 294 292 291 290 289 289 287 285 284 285 284 281 277 272 268 266 263 260 256 254 255 253 250 249 249 250 250 249 247
300 300 300 299 299 299 299 298 296 293 292 290 289 288 288 286 286 285 285 283 278 275 272 268 266 263 260 255 250 248 245 243 243 244 244 247 248 245
300 300 300 300 299 299 300 299 298 295 293 290 288 288 287 286 285 285 285 283 278 273 267 266 267 263 256 248 242 240 238 238 238 240 243 246 246 243
300 299 299 299 300 299 300 299 297 295 293 291 290 289 289 287 284 284 284 280 275 270 265 265 266 261 251 243 239 237 236 237 237 239 243 247 246 244
299 298 298 300 300 299 298 297 295 294 292 291 290 290 291 288 284 283 283 277 272 267 266 264 261 254 244 237 234 232 232 234 236 238 242 246 243 240
Height
5654 5650 5646 5643 5639 5635 5632 5628 5626 5625 5625 5622 5619 5615 5612 5610 5609 5607 5606 5606 5605 5604 5603 5602 5602 5601 5601 5600 5601 5601 5602 5603 5604 5606 5608 5610 5612 5615
5639 5635 5632 5628 5624 5620 5617 5613 5610 5608 5607 5607 5603 5599 5596 5594 5592 5590 5589 5589 5588 5586 5585 5584 5584 5583 5583 5583 5583 5583 5583 5585 5586 5588 5590 5593 5595 5598
5625 5621 5617 5613 5609 5606 5602 5599 5595 5592 5589 5590 5586 5583 5579 5577 5576 5574 5572 5571 5570 5569 5568 5567 5566 5566 5565 5565 5565 5565 5565 5566 5568 5569 5572 5575 5577 5581
5611 5607 5604 5599 5595 5591 5587 5584 5580 5577 5573 5572 5570 5567 5564 5561 5559 5557 5555 5554 5553 5552 5551 5550 5549 5548 5547 5547 5546 5547 5547 5548 5549 5551 5554 5557 5560 5563
5597 5593 5589 5585 5582 5577 5573 5569 5566 5562 5558 5555 5554 5551 5548 5545 5543 5541 5539 5537 5536 5535 5533 5532 5531 5530 5529 5529 5529 5529 5529 5530 5532 5534 5536 5538 5541 5545
5583 5579 5575 5571 5567 5563 5559 5555 5551 5547 5544 5540 5538 5536 5533 5530 5527 5525 5523 5521 5520 5518 5516 5515 5513 5512 5512 5511 5511 5511 5512 5512 5514 5515 5518 5520 5523 5527
5569 5565 5561 5557 5553 5549 5545 5541 5537 5533 5530 5526 5524 5521 5518 5515 5513 5510 5508 5506 5504 5501 5499 5498 5497 5496 5494 5494 5493 5493 5493 5494 5496 5498 5500 5502 5505 5509
5556 5552 5548 5544 5539 5535 5531 5527 5523 5519 5516 5512 5509 5507 5504 5501 5498 5495 5492 5490 5490 5488 5484 5483 5480 5479 5478 5477 5477 5476 5477 5478 5480 5481 5483 5485 5488 5491
5543 5539 5535 5530 5526 5522 5518 5514 5509 5505 5501 5498 5495 5493 5490 5487 5484 5482 5478 5475 5474 5471 5468 5468 5465 5464 5464 5462 5462 5462 5463 5464 5465 5466 5468 5470 5473 5476
5530 5526 5522 5518 5513 5508 5505 5501 5496 5492 5488 5484 5482 5479 5476 5472 5469 5466 5463 5461 5459 5456 5453 5453 5452 5451 5451 5450 5449 5449 5450 5451 5452 5453 5455 5457 5459 5462
5517 5513 5508 5504 5500 5495 5491 5487 5483 5479 5474 5470 5467 5464 5461 5457 5454 5451 5449 5447 5446 5445 5441 5440 5440 5439 5439 5438 5438 5438 5439 5440 5441 5442 5443 5445 5447 5450
5505 5500 5495 5491 5486 5481 5477 5474 5471 5467 5462 5458 5454 5451 5447 5444 5441 5438 5436 5434 5433 5432 5431 5429 5428 5427 5428 5428 5427 5428 5429 5430 5431 5432 5433 5435 5437 5439
5492 5488 5483 5478 5474 5469 5465 5461 5458 5454 5450 5446 5443 5439 5436 5433 5429 5426 5424 5422 5421 5420 5419 5418 5418 5417 5417 5418 5419 5418 5419 5420 5421 5423 5424 5426 5428 5430
5480 5476 5471 5466 5462 5458 5453 5450 5445 5441 5437 5434 5430 5427 5425 5422 5419 5416 5414 5412 5410 5409 5408 5407 5407 5407 5408 5409 5410 5410 5411 5412 5413 5414 5416 5418 5419 5421
5468 5464 5459 5455 5451 5447 5443 5438 5434 5430 5426 5422 5419 5416 5414 5412 5409 5407 5405 5403 5401 5399 5398 5398 5398 5399 5399 5400 5401 5402 5403 5404 5405 5406 5408 5409 5411 5413
5457 5453 5448 5444 5440 5436 5432 5427 5423 5419 5416 5413 5410 5407 5404 5402 5400 5398 5397 5395 5393 5392 5390 5390 5390 5390 5391 5392 5393 5394 5395 5397 5398 5399 5400 5402 5403 5405
5446 5442 5438 5434 5429 5425 5421 5417 5413 5410 5406 5403 5400 5398 5396 5394 5392 5390 5389 5387 5385 5384 5383 5383 5383 5383 5384 5385 5386 5387 5388 5389 5391 5392 5394 5395 5396 5398
5436 5432 5427 5423 5419 5415 5411 5408 5404 5400 5397 5394 5392 5390 5388 5386 5384 5382 5381 5379 5377 5376 5376 5376 5376 5376 5377 5377 5378 5380 5381 5383 5384 5386 5387 5389 5390 5391
5425 5421 5417 5413 5409 5405 5402 5398 5395 5391 5388 5386 5384 5382 5380 5378 5376 5375 5373 5372 5370 5369 5369 5369 5369 5369 5370 5371 5372 5373 5375 5376 5378 5380 5381 5383 5384 5386
5415 5411 5408 5404 5400 5397 5393 5390 5386 5383 5381 5378 5376 5374 5373 5371 5370 5368 5367 5365 5364 5363 5362 5362 5362 5363 5363 5364 5366 5367 5369 5371 5373 5374 5376 5377 5379 5380
5406 5402 5399 5395 5392 5388 5385 5382 5379 5376 5374 5371 5370 5368 5366 5365 5363 5362 5360 5359 5358 5357 5357 5357 5357 5357 5357 5358 5360 5362 5364 5366 5368 5369 5371 5372 5374 5375
5397 5394 5390 5387 5384 5381 5378 5375 5372 5370 5367 5365 5363 5362 5360 5359 5357 5356 5354 5353 5353 5352 5352 5352 5352 5352 5352 5354 5356 5358 5360 5362 5364 5365 5367 5368 5369 5371
5389 5386 5383 5380 5377 5374 5371 5368 5366 5364 5362 5360 5358 5357 5355 5353 5352 5350 5349 5349 5348 5348 5347 5347 5347 5348 5348 5350 5352 5354 5356 5358 5360 5361 5363 5364 5365 5366